FW5122 Weather Reports


Display with metric or nautical units.
time (UTC)temp
F
wind
direction
speed
MPH
gust
MPH
rain 1hr
in
rain 24hr
in
rain mn
in
humidity
%
barometer
mb
20260831005433 95 59 0.0 8.0 0.00 0.00 0.00 37 1013.5
20260831004732 95 111 5.0 14.0 0.00 0.00 0.00 37 1013.1
20260831004032 95 63 2.0 14.0 0.00 0.00 0.00 37 1013.5
20260831003333 95 65 0.0 14.0 0.00 0.00 0.00 37 1013.1
20260831002632 96 64 0.0 14.0 0.00 0.00 0.00 37 1013.1
20260831001932 96 64 2.0 14.0 0.00 0.00 0.00 36 1013.1
20260831000532 96 68 5.0 14.0 0.00 0.00 0.00 36 1013.5
20260830235832 97 140 11.0 17.0 0.00 0.00 0.00 36 1013.5
20260830235132 97 105 8.0 17.0 0.00 0.00 0.00 36 1013.5
20260830234433 97 66 5.0 17.0 0.00 0.00 0.00 35 1013.5
20260830233732 98 84 8.0 17.0 0.00 0.00 0.00 35 1013.1
20260830233032 98 80 8.0 17.0 0.00 0.00 0.00 35 1013.5
20260830232332 98 114 14.0 17.0 0.00 0.00 0.00 34 1013.5
20260830231632 98 131 11.0 17.0 0.00 0.00 0.00 34 1013.5
20260830230932 98 85 8.0 17.0 0.00 0.00 0.00 34 1013.5
20260830230232 98 59 2.0 14.0 0.00 0.00 0.00 34 1013.5
20260830225532 98 58 5.0 14.0 0.00 0.00 0.00 34 1013.5
20260830224832 99 56 8.0 14.0 0.00 0.00 0.00 33 1013.8
20260830224132 99 131 17.0 14.0 0.00 0.00 0.00 33 1013.8
20260830222036 100 50 2.0 14.0 0.00 0.00 0.00 32 1013.5
20260830221332 101 49 5.0 14.0 0.00 0.00 0.00 31 1013.8
20260830215232 103 132 8.0 21.0 0.00 0.00 0.00 32 1013.5
20260830214532 102 91 5.0 21.0 0.00 0.00 0.00 32 1013.8
20260830213132 102 63 2.0 21.0 0.00 0.00 0.00 31 1014.1
20260830212432 104 67 2.0 21.0 0.00 0.00 0.00 31 1014.1
20260830211732 106 87 11.0 21.0 0.00 0.00 0.00 30 1014.1
20260830211032 105 58 0.0 12.0 0.00 0.00 0.00 31 1014.1
20260830210332 106 64 17.0 12.0 0.00 0.00 0.00 31 1014.1
20260830205632 106 73 5.0 12.0 0.00 0.00 0.00 32 1014.1
20260830204932 105 49 8.0 12.0 0.00 0.00 0.00 32 1014.1
20260830203533 103 60 5.0 12.0 0.00 0.00 0.00 32 1014.5
20260830202832 102 50 5.0 12.0 0.00 0.00 0.00 34 1014.5
20260830202132 103 56 2.0 12.0 0.00 0.00 0.00 34 1014.8
20260830201432 103 67 5.0 12.0 0.00 0.00 0.00 33 1014.8
20260830200732 103 25 5.0 10.0 0.00 0.00 0.00 34 1014.8
20260830200032 102 82 5.0 10.0 0.00 0.00 0.00 34 1015.1
20260830195332 102 61 0.0 10.0 0.00 0.00 0.00 34 1015.1
20260830194632 102 65 5.0 14.0 0.00 0.00 0.00 35 1015.1
20260830193933 101 97 8.0 14.0 0.00 0.00 0.00 35 1015.5
20260830193233 101 351 5.0 14.0 0.00 0.00 0.00 36 1015.5
20260830192532 101 58 0.0 14.0 0.00 0.00 0.00 35 1015.5
20260830191832 100 114 8.0 14.0 0.00 0.00 0.00 36 1015.8
20260830185732 101 54 0.0 14.0 0.00 0.00 0.00 35 1015.8
20260830185032 102 65 5.0 19.0 0.00 0.00 0.00 36 1016.2
20260830184332 102 327 5.0 19.0 0.00 0.00 0.00 36 1016.2
20260830183632 103 3 11.0 19.0 0.00 0.00 0.00 35 1016.2
20260830182932 103 124 17.0 19.0 0.00 0.00 0.00 36 1016.2
20260830182232 103 63 8.0 19.0 0.00 0.00 0.00 36 1016.5
20260830180832 103 64 5.0 19.0 0.00 0.00 0.00 38 1016.5
20260830175432 102 48 14.0 19.0 0.00 0.00 0.00 39 1016.8
20260830174732 101 104 8.0 14.0 0.00 0.00 0.00 39 1016.8
20260830174032 101 72 8.0 14.0 0.00 0.00 0.00 40 1017.2
20260830173332 101 58 5.0 14.0 0.00 0.00 0.00 40 1017.2
20260830172631 102 59 8.0 14.0 0.00 0.00 0.00 39 1017.2
20260830171932 101 37 5.0 10.0 0.00 0.00 0.00 39 1017.2
20260830171232 101 53 5.0 10.0 0.00 0.00 0.00 41 1017.2
20260830170531 100 42 0.0 10.0 0.00 0.00 0.00 41 1017.5
20260830165832 99 42 2.0 10.0 0.00 0.00 0.00 43 1017.5
20260830164432 98 53 5.0 10.0 0.00 0.00 0.00 45 1017.5
20260830163732 98 53 2.0 10.0 0.00 0.00 0.00 46 1017.5
20260830163033 98 47 0.0 10.0 0.00 0.00 0.00 46 1017.9
20260830162331 97 77 0.0 8.0 0.00 0.00 0.00 47 1017.9
20260830161631 97 75 2.0 8.0 0.00 0.00 0.00 48 1017.9
20260830160932 96 49 2.0 8.0 0.00 0.00 0.00 49 1017.9
20260830160232 96 11 5.0 8.0 0.00 0.00 0.00 51 1017.9
20260830155531 94 74 5.0 8.0 0.00 0.00 0.00 51 1017.9
20260830154833 94 275 5.0 8.0 0.00 0.00 0.00 52 1017.5
20260830154132 93 68 2.0 6.0 0.00 0.00 0.00 53 1017.5
20260830153432 92 42 5.0 6.0 0.00 0.00 0.00 54 1017.9
20260830152732 90 51 2.0 6.0 0.00 0.00 0.00 58 1018.2
20260830152031 89 58 2.0 6.0 0.00 0.00 0.00 58 1017.9
20260830151332 88 57 2.0 6.0 0.00 0.00 0.00 59 1017.9
20260830145932 87 61 0.0 6.0 0.00 0.00 0.00 61 1017.9
20260830145231 86 62 0.0 6.0 0.00 0.00 0.00 61 1017.5
20260830144531 86 352 5.0 6.0 0.00 0.00 0.00 62 1017.9
20260830143831 85 59 0.0 6.0 0.00 0.00 0.00 62 1017.9
20260830142431 85 60 0.0 6.0 0.00 0.00 0.00 62 1018.2
20260830141731 85 54 2.0 6.0 0.00 0.00 0.00 62 1018.2
20260830141031 85 60 2.0 8.0 0.00 0.00 0.00 63 1018.2
20260830140331 84 51 2.0 8.0 0.00 0.00 0.00 63 1018.2
20260830135631 84 60 0.0 8.0 0.00 0.00 0.00 63 1018.2
20260830134931 83 62 0.0 8.0 0.00 0.00 0.00 64 1018.2
20260830133531 82 73 5.0 8.0 0.00 0.00 0.00 65 1017.9
20260830132831 81 71 5.0 8.0 0.00 0.00 0.00 66 1017.9
20260830132131 80 62 2.0 8.0 0.00 0.00 0.00 67 1017.9
20260830131431 79 85 5.0 8.0 0.00 0.00 0.00 67 1017.5
20260830130731 79 59 0.0 6.0 0.00 0.00 0.00 67 1017.5
20260830130030 78 60 0.0 6.0 0.00 0.00 0.00 67 1017.5
20260830124831 78 60 0.0 4.0 0.00 0.00 0.00 67 1017.5
20260830123431 78 60 2.0 4.0 0.00 0.00 0.00 67 1017.2
20260830122731 78 59 0.0 0.0 0.00 0.00 0.00 67 1016.8
20260830122031 78 59 0.0 0.0 0.00 0.00 0.00 66 1017.2
20260830121331 78 60 0.0 0.0 0.00 0.00 0.00 66 1016.8
20260830120631 78 60 0.0 2.0 0.00 0.00 0.00 65 1016.8
20260830115934 78 61 0.0 4.0 0.00 0.00 0.00 65 1016.8
20260830115234 78 59 0.0 4.0 0.00 0.00 0.00 64 1016.8
20260830114534 78 60 0.0 4.0 0.00 0.00 0.00 64 1016.5
20260830113834 79 60 0.0 4.0 0.00 0.00 0.00 64 1016.5
20260830113134 79 60 0.0 4.0 0.00 0.00 0.00 63 1016.5
20260830112433 79 59 0.0 4.0 0.00 0.00 0.00 62 1015.8
20260830111733 80 56 0.0 6.0 0.00 0.00 0.00 62 1016.2
20260830111034 80 60 0.0 6.0 0.00 0.00 0.00 61 1016.2
20260830110334 80 60 5.0 6.0 0.00 0.00 0.00 61 1016.2
20260830105635 80 58 0.0 6.0 0.00 0.00 0.00 61 1016.2
20260830104934 80 59 0.0 6.0 0.00 0.00 0.00 60 1016.2
20260830104233 81 78 5.0 6.0 0.00 0.00 0.00 60 1016.2
20260830103533 80 71 2.0 6.0 0.00 0.00 0.00 59 1016.2
20260830102834 81 61 0.0 6.0 0.00 0.00 0.00 59 1016.2
20260830102134 81 61 0.0 4.0 0.00 0.00 0.00 59 1016.2
20260830101433 81 59 0.0 4.0 0.00 0.00 0.00 58 1016.2
20260830100733 81 60 0.0 4.0 0.00 0.00 0.00 58 1015.8
20260830100034 81 59 0.0 4.0 0.00 0.00 0.00 57 1015.8
20260830095333 82 64 0.0 4.0 0.00 0.00 0.00 57 1015.8
20260830093234 82 59 0.0 4.0 0.00 0.00 0.00 56 1015.8
20260830092533 82 59 0.0 4.0 0.00 0.00 0.00 56 1015.8
20260830091833 82 68 0.0 4.0 0.00 0.00 0.00 55 1015.8
20260830091133 83 60 0.0 4.0 0.00 0.00 0.00 55 1015.8
20260830085733 83 58 0.0 6.0 0.00 0.00 0.00 54 1015.8
20260830085034 83 60 0.0 6.0 0.00 0.00 0.00 53 1015.8
20260830084333 84 63 0.0 6.0 0.00 0.00 0.00 53 1015.8
20260830083633 84 63 0.0 6.0 0.00 0.00 0.00 52 1015.8
20260830082933 84 59 0.0 6.0 0.00 0.00 0.00 52 1015.8
20260830082233 84 59 2.0 6.0 0.00 0.00 0.00 52 1015.8
20260830081533 84 58 0.0 6.0 0.00 0.00 0.00 52 1015.8
20260830080833 84 61 0.0 6.0 0.00 0.00 0.00 52 1015.8
20260830075433 84 91 5.0 4.0 0.00 0.00 0.00 52 1015.8
20260830074733 84 60 0.0 4.0 0.00 0.00 0.00 52 1015.8
20260830074033 84 68 2.0 4.0 0.00 0.00 0.00 52 1015.8
20260830073333 84 60 0.0 4.0 0.00 0.00 0.00 52 1015.8
20260830071933 83 66 0.0 4.0 0.00 0.00 0.00 52 1015.8
20260830071233 83 66 5.0 4.0 0.00 0.00 0.00 52 1015.8
20260830070533 83 58 0.0 0.0 0.00 0.00 0.00 52 1015.8
20260830065833 83 58 0.0 0.0 0.00 0.00 0.00 51 1016.2
20260830064433 83 59 0.0 0.0 0.00 0.00 0.00 52 1015.8
20260830063733 83 59 0.0 0.0 0.00 0.00 0.00 51 1015.8
20260830063033 83 57 0.0 0.0 0.00 0.00 0.00 51 1015.8
20260830061633 83 58 0.0 0.0 0.00 0.00 0.00 50 1015.8
20260830060933 83 58 0.0 0.0 0.00 0.00 0.00 50 1015.8
20260830060233 83 61 0.0 0.0 0.00 0.00 0.00 50 1015.8
20260830054133 84 59 0.0 0.0 0.00 0.00 0.00 49 1015.8
20260830052733 84 59 0.0 0.0 0.00 0.00 0.00 48 1015.8
20260830052033 84 59 0.0 0.0 0.00 0.00 0.00 47 1015.8
20260830051333 85 60 0.0 0.0 0.00 0.00 0.00 47 1015.8
20260830050633 85 59 0.0 0.0 0.00 0.00 0.00 46 1015.5
20260830045233 86 59 0.0 0.0 0.00 0.00 0.00 46 1015.8
20260830044533 86 58 0.0 4.0 0.00 0.00 0.00 45 1015.8
20260830043833 86 58 0.0 4.0 0.00 0.00 0.00 45 1015.8
20260830043133 87 58 0.0 4.0 0.00 0.00 0.00 44 1015.8
20260830042433 87 58 0.0 4.0 0.00 0.00 0.00 44 1015.8
20260830040333 88 58 0.0 4.0 0.00 0.00 0.00 42 1015.5
20260830035633 88 60 0.0 4.0 0.00 0.00 0.00 42 1015.8
20260830034933 89 60 0.0 4.0 0.00 0.00 0.00 42 1015.8
20260830034233 89 59 0.0 4.0 0.00 0.00 0.00 42 1015.5
20260830033533 89 59 2.0 4.0 0.00 0.00 0.00 42 1015.8
20260830032833 89 58 0.0 4.0 0.00 0.00 0.00 42 1015.5
20260830031433 90 58 0.0 6.0 0.00 0.00 0.00 41 1015.1
20260830030033 90 68 0.0 6.0 0.00 0.00 0.00 40 1015.1
20260830025333 90 59 2.0 6.0 0.00 0.00 0.00 40 1015.1
20260830024633 90 61 0.0 6.0 0.00 0.00 0.00 40 1015.1
20260830023933 90 58 0.0 6.0 0.00 0.00 0.00 40 1015.1
20260830023233 90 60 2.0 6.0 0.00 0.00 0.00 40 1014.8
20260830022532 90 60 0.0 4.0 0.00 0.00 0.00 40 1014.8
20260830021833 91 59 0.0 4.0 0.00 0.00 0.00 39 1014.8
20260830021133 91 59 0.0 4.0 0.00 0.00 0.00 39 1014.8
20260830020433 92 60 0.0 4.0 0.00 0.00 0.00 38 1014.5
20260830015733 92 60 0.0 4.0 0.00 0.00 0.00 38 1014.8
20260830015032 92 59 0.0 4.0 0.00 0.00 0.00 38 1014.5
20260830014333 92 60 0.0 4.0 0.00 0.00 0.00 37 1014.5
20260830013632 92 61 2.0 4.0 0.00 0.00 0.00 37 1014.5
20260830012933 93 60 0.0 4.0 0.00 0.00 0.00 37 1014.1
20260830012233 93 58 0.0 4.0 0.00 0.00 0.00 36 1014.5
20260830011533 94 64 0.0 6.0 0.00 0.00 0.00 36 1014.5
20260830010833 94 58 0.0 6.0 0.00 0.00 0.00 35 1014.5
20260830010132 94 60 0.0 6.0 0.00 0.00 0.00 35 1014.1